User: anonymous   Login
Location: Bakov nad Jizerou
(50.4784°N, 14.9394°E)
Time: 19:52:25
(UTC+00:00)
Language:

RESURS O1 DEB - Orbit

View from above orbital plane
View from above orbital plane
View from above satellite
View from above satellite

Ground track
Ground track

The orbit data is extracted from the following two-line orbital elements,

1 49238U 94074FS  22020.08998442  .00006451  00000-0  78712-3 0  9994
2 49238  97.9095  73.0041 0003129 358.8153   1.3053 14.83666142 23895
Epoch (UTC): 20 January 2022 02:09:34
Eccentricity: 0.0003129
inclination: 97.9095°
perigee height: 615 km
apogee height: 620 km
right ascension of ascending node: 73.0041°
argument of perigee: 358.8153°
revolutions per day: 14.83666142
mean anomaly at epoch: 1.3053°
orbit number at epoch: 2389

The dashed part of the orbit path shows where the satellite is in the earth's shadow,  

DLR